Regional Weather Roundup
Issued by NWS

Home | Current Version | Previous Version | Graphics & Text | Print | Product List | Glossary On
Versions: 1 2 3 4 5 6 7 8 9 10 11 12 13 14 15 16 17 18 19 20 21 22 23 24 25 26 27 28 29 30 31 32 33 34 35 36 37 38 39 40 41 42 43 44 45 46 47 48 49 50
000
ASUS43 KFSD 302110
RWRSD

WEATHER ROUNDUP FOR SOUTH DAKOTA
NATIONAL WEATHER SERVICE SIOUX FALLS SD
400 PM CDT SAT APR 30 2016

NOTE: "FAIR" INDICATES FEW OR NO CLOUDS BELOW 12,000 FEET WITH NO
SIGNIFICANT WEATHER AND/OR OBSTRUCTIONS TO VISIBILITY.


SDZ001>005-009-010-012>017-302200-
NORTHWEST AND NORTH CENTRAL SOUTH DAKOTA

CITY           SKY/WX    TMP DP  RH WIND       PRES   REMARKS
BUFFALO          N/A     54  30  40 E17G26    30.10R
FAITH            N/A     56  30  37 NE23G36   30.09F
MOBRIDGE       MOSUNNY   60  32  34 NE24G31   30.08S
$$

SDZ012>016-024>037-041>051-057-063-072>074-302200-
SOUTHWEST AND SOUTH CENTRAL SOUTH DAKOTA

CITY           SKY/WX    TMP DP  RH WIND       PRES   REMARKS
RAPID CTY ARPT CLOUDY    48  34  58 N16       30.09S
PIERRE         CLOUDY    54  36  50 NE26G35   30.03R
CUSTER         CLOUDY    36  29  75 N15G25    30.07R
ELLSWORTH AFB  CLOUDY    50  34  53 N20G28    30.09R
PHILIP         CLOUDY    53  32  44 NE26G35   30.05R
PINE RIDGE     CLOUDY    44  33  65 N23G33    30.01R
WINNER         RAIN      44  39  82 NE28G35   29.96S
$$

SDZ004>011-016>023-039-040-302200-
NORTHEAST SOUTH DAKOTA

CITY           SKY/WX    TMP DP  RH WIND       PRES   REMARKS
ABERDEEN       CLOUDY    58  35  42 E22G30    30.07S
WATERTOWN      CLOUDY    53  35  50 E18G36    30.02S
BROOKINGS      CLOUDY    49  37  63 NE21G29   29.96F
SISSETON         N/A     59  33  37 E16G29    30.06S
$$

SDZ017-020-022-023-036>040-048>070-302200-
SOUTHEAST SOUTH DAKOTA

CITY           SKY/WX    TMP DP  RH WIND       PRES   REMARKS
SIOUX FALLS    LGT RAIN  45  40  82 NE25G37   29.92R
HURON          CLOUDY    50  37  61 E20       30.01R
CHAMBERLAIN    RAIN      46  42  88 NE20G29   29.99R
MITCHELL       RAIN      46  42  86 NE22G29   29.97R FOG
YANKTON        CLOUDY    45  43  93 NE20G31   29.86S
$$

ABBREVIATIONS USED IN REMARKS
   TC - TEMPERATURE IN CELSIUS
  WCI - WIND CHILL INDEX
   HX - HEAT INDEX
  VSB - VISIBILITY




USA.gov is the U.S. government's official web portal to all federal, state and local government web resources and services.